Location: Lake Zurich
(42.1970°N, 88.0930°W)
Time: 09:09:25
(UTC-05:00)

Daily predictions for brighter satellites

Satellite Brightness Start Highest point End
(mag) Time Altitude Azimuth Time Altitude Azimuth Time Altitude Azimuth
CZ-4C R/B 3.1 18:18:24 10° SSE 18:22:34 25° ESE 18:27:06 10° ENE
Cosmos 44 Rocket 4.1 18:20:30 10° S 18:24:35 30° ESE 18:28:40 10° NE
SL-16 R/B 3.6 18:20:44 10° NW 18:26:07 45° WSW 18:31:28 10° S
Lacrosse 5 rocket 3.8 18:26:29 10° NW 18:28:50 14° NNW 18:31:08 10° NNE
Cosmos 1703 3.3 18:26:19 10° N 18:30:13 60° E 18:34:03 10° SSE
GENESIS II 4.3 18:29:58 10° SW 18:33:57 84° NW 18:37:57 10° NNE
RESURS DK-1 2.4 18:32:01 10° NNW 18:36:11 87° WSW 18:40:18 10° SSE
Cosmos 2366 rocket 4.1 18:30:06 10° S 18:36:20 90° WNW 18:42:31 10° N
Cosmos 1908 3.7 18:32:55 10° SSE 18:36:33 38° E 18:40:12 10° NNE
COSMO-SKYMED 1 2.9 18:33:09 10° NNE 18:37:18 43° E 18:41:26 10° S
Cosmos 2237 4.3 18:31:41 10° NNW 18:37:23 61° ENE 18:43:01 10° SE
Cosmos 1626 2.3 18:34:16 10° N 18:38:01 80° W 18:41:44 10° S
Cosmos 2237 Rocket 3.7 18:37:59 10° N 18:41:50 18° NE 18:45:24 11° E
Ariane Rocket 4.1 18:37:11 10° S 18:42:07 50° W 18:47:05 10° NNW
Atlas Centaur 2 3.9 18:39:55 10° SW 18:42:29 15° S 18:45:21 10° SSE
Gbstr 26 Del rocket 3.8 18:40:08 10° NW 18:44:51 53° NNE 18:50:40 10° ESE
H-2A R/B 4.4 18:44:20 10° ESE 18:46:49 16° ENE 18:49:19 10° NNE
Cosmos 2151 3.1 18:44:29 10° N 18:48:46 84° W 18:53:00 10° S
Cosmos 1805 Rocket 4.3 18:44:57 10° NNE 18:48:51 30° ENE 18:52:45 10° SE
Cosmos 2227 Rocket 3.7 18:47:47 10° SE 18:50:38 14° E 18:52:07 13° E
CZ-2C R/B 4.3 18:48:30 10° N 18:52:57 61° WNW 18:57:20 10° SSW
SL-16 R/B 4.1 18:52:11 10° NNE 18:53:16 10° NE 18:54:20 10° NE
Cosmos 2058 3.3 18:51:29 10° NNW 18:55:39 70° W 18:59:45 10° S
Cosmos 1400 Rocket 4.0 18:53:38 10° NNW 18:57:30 46° W 19:01:16 10° SSW
YAOGAN 1 3.0 18:55:19 10° S 18:59:36 65° W 19:03:55 10° NNW
ALOS 2.4 18:58:23 10° SSE 19:02:55 54° ENE 19:07:28 10° N
Cosmos 2360 Rocket 3.0 18:57:49 10° NNW 19:03:22 56° WSW 19:08:52 10° S
Cosmos 1300 3.7 19:00:20 10° SE 19:03:26 24° E 19:06:34 10° NE
Cosmos 1633 Rocket 4.1 19:00:03 10° NNE 19:03:39 24° ENE 19:06:13 15° ESE
Cosmos 1269 Rocket 4.1 18:59:14 10° S 19:04:21 54° ESE 19:09:30 10° NNE
GRACE-2 3.6 19:01:50 10° S 19:04:23 83° W 19:06:57 10° N
GRACE-1 4.1 19:06:39 10° S 19:09:12 64° W 19:11:46 10° N
MOS 1 4.5 19:04:17 10° S 19:09:56 78° WSW 19:15:39 10° NNW
Cosmos 1000 Rocket 4.4 19:04:23 10° N 19:10:36 66° E 19:16:42 10° SSE
Cosmos 1821 Rocket 4.0 19:06:20 10° S 19:12:21 58° E 19:18:29 10° NNE
Cosmos 1934 Rocket 4.3 19:06:30 10° SSE 19:12:27 44° E 19:18:27 10° NNE
Aureole 2 Rocket 3.0 19:09:26 10° N 19:13:14 46° ENE 19:16:42 13° SE
SPOT 3 Rocket 3.6 19:08:21 10° SSE 19:13:34 85° WSW 19:18:48 10° NNW
COSMOS 2428 2.6 19:08:22 10° NNW 19:14:05 81° ENE 19:19:46 10° SSE
Abrixas 1.5 19:13:08 10° SW 19:15:15 66° SSE 19:15:20 65° SE
Cosmos 1452 Rocket 4.5 19:11:56 10° NNW 19:17:00 50° WSW 19:22:03 10° S
Cosmos 2333 Rocket 2.5 19:11:29 10° NNW 19:17:01 46° ENE 19:21:36 15° SE
Cosmos 2239 Rocket 4.4 19:12:17 10° S 19:18:19 65° E 19:24:25 10° NNE
Cosmos 2219 3.2 19:13:45 10° SSW 19:19:28 71° ESE 19:25:12 10° NNE
CZ-4 R/B 3.9 19:16:44 10° SSW 19:20:14 26° W 19:23:44 10° NW
FENGYUN 3A 3.6 19:15:17 10° SSE 19:20:40 78° ENE 19:26:07 10° N
BREEZE-M DEB (TANK) 4.3 19:00:10 10° WNW 19:22:49 67° NNE 19:26:19 25° E
Cosmos 2221 2.8 19:21:02 10° SSW 19:25:20 69° W 19:29:42 10° N
SKYMED 2 4.3 19:21:08 10° N 19:25:24 55° WNW 19:29:38 10° SSW
BREEZE-M R/B 3.5 19:23:12 10° SSW 19:25:04 25° SSE 19:25:04 25° SSE
Iridium 4 Rocket 3.7 19:20:10 10° S 19:25:47 86° E 19:31:43 10° N
Cosmos 2297 Rocket 3.2 19:23:17 10° SSE 19:27:02 24° ESE 19:27:02 24° ESE
Cosmos 494 Rocket 4.5 19:24:06 10° SSE 19:28:41 35° ESE 19:30:46 25° ENE
Cosmos 2098 Rocket 3.4 19:24:12 10° S 19:28:48 84° E 19:34:46 10° N
Cosmos 2084 3.4 19:27:18 10° NNW 19:30:59 47° NE 19:31:39 42° E
Cosmos 44 3.5 19:28:51 10° SW 19:33:08 59° NW 19:37:04 12° NNE
Cosmos 1110 Rocket 4.2 19:28:39 10° N 19:33:50 50° ENE 19:36:35 26° SE
Abrixas rocket 3.4 19:32:31 10° NW 19:35:28 29° N 19:35:41 29° NNE
Meteor 2-10 3.9 19:31:12 10° S 19:36:08 60° E 19:41:11 10° NNE
Meteor 2-2 Rocket 4.4 19:32:28 10° SSE 19:37:53 47° E 19:43:15 10° NNE
BREEZE-M DEB (TANK) 3.4 19:28:55 10° W 19:39:18 61° N 19:41:01 35° ENE
BREEZE-M DEB (TANK) 4.3 19:34:58 10° WNW 19:39:47 81° SSW 20:01:55 10° SE
Cosmos 1726 2.3 19:37:22 10° SSW 19:41:02 69° W 19:44:44 10° N
Cosmos 2123 Rocket 3.9 19:36:05 10° N 19:42:18 66° E 19:48:32 10° SSE
FengYun 1-2 T 4.1 19:38:07 10° SSE 19:43:36 73° ENE 19:49:05 10° N
Cosmos 1605 Rocket 3.9 19:40:53 10° SSE 19:46:47 55° E 19:52:42 10° NNE
Cosmos 2219 Rocket 2.2 19:45:07 10° NNW 19:50:45 84° WSW 19:55:32 15° SSE
BREEZE-M DEB (TANK) 4.1 19:49:18 10° WNW 19:50:18 18° NW 19:50:18 18° NW
FREGAT/IRIS 3.9 19:56:22 36° NW 19:56:22 36° NW 19:58:21 10° NNW
Cosmos 2251 Rocket 3.9 19:52:39 10° S 19:56:38 42° SE 19:56:38 42° SE
Envisat 3.9 20:01:48 32° NNE 20:01:48 32° NNE 20:05:00 10° N
SJ-6B 3.2 20:06:28 54° NNW 20:06:28 54° NNW 20:09:27 10° NNW
NOSS 0 Rocket 3.9 20:02:14 10° NNW 20:08:25 82° WSW 20:11:40 30° SSE
Resurs 01 Rocket 3.3 20:11:20 23° N 20:11:20 23° N 20:13:07 10° N
Lacrosse 5 rocket 3.9 20:08:17 10° NNW 20:09:34 11° N 20:09:34 11° N
CZ-4C R/B 2.9 20:05:28 10° WSW 20:10:34 50° NW 20:15:05 17° NNE
MOS 1-B Rocket 3.8 20:09:36 51° SE 20:11:01 70° ENE 20:17:11 10° N
Sich 1 3.9 20:08:34 10° NNW 20:12:48 49° W 20:17:03 10° SSW
Thor Agena Rocket 4.1 20:09:14 10° N 20:14:12 55° WNW 20:19:07 10° SSW
Cosmos 1447 Rocket 4.3 20:14:08 10° N 20:20:28 72° E 20:21:16 64° SE
H-2A R/B 4.1 20:19:07 26° SSW 20:20:45 38° W 20:24:27 10° NNW
BREEZE M DEB (TANK) 3.9 20:07:22 10° WNW 20:22:29 76° NNE 20:23:10 67° ENE
Cosmos 2237 Rocket 2.2 20:20:53 10° NNW 20:26:36 80° WSW 20:27:16 69° S
Cosmos 1331 Rocket 4.3 20:23:03 10° NNW 20:28:13 61° WSW 20:29:11 51° SSW
USA 267 3.4 20:32:24 55° SSE 20:32:24 55° SSE 20:38:01 10° SSW
Cosmos 2227 Rocket 2.2 20:28:15 10° SSW 20:33:54 80° WNW 20:34:03 79° NW
SL-16 R/B 3.2 20:33:08 10° NNW 20:36:39 36° N 20:36:39 36° N
Cosmos 1980 4.5 20:45:16 10° NW 20:50:39 47° WSW 20:51:11 45° SW
Meteor 2-3 Rocket 4.2 20:45:20 10° NNW 20:50:10 59° NW 20:50:10 59° NW
CZ-3A R/B 3.8 20:38:40 10° NW 20:55:58 67° NNE 20:56:32 65° NE
ATLAS 5 CENTAUR R/B 4.5 20:52:41 10° N 20:54:05 14° N 20:54:05 14° N
Cosmos 2333 Rocket 4.0 20:56:17 10° NW 21:01:00 27° WSW 21:03:41 19° SW
USA 234 4.1 21:08:10 39° N 21:08:10 39° N 21:12:59 10° NW
Centaur D AC-28 4.5 21:00:57 10° SW 21:42:07 - E 21:03:27 26° S
Cosmos 2297 Rocket 3.7 21:05:58 10° SW 21:08:58 30° WSW 21:08:58 30° WSW
